Time,TemperatureF,DewpointF,PressureIn,WindDirection,WindDirectionDegrees,WindSpeedMPH,WindSpeedGustMPH,Humidity,HourlyPrecipIn,Conditions,Clouds,dailyrainin,SoftwareType,DateUTC
2013-09-08 00:00:00,77.2,72.0,29.91,North,7,0.0,0.0,84,0.00,,,0.00,WUHU216DAVISVP2,2013-09-08 05:00:00,
2013-09-08 00:18:00,77.1,72.4,29.91,ESE,119,0.0,1.0,85,0.00,,,0.00,WUHU216DAVISVP2,2013-09-08 05:18:00,
2013-09-08 00:30:00,77.0,72.1,29.91,ESE,120,0.0,1.0,85,0.00,,,0.00,WUHU216DAVISVP2,2013-09-08 05:30:00,
2013-09-08 00:48:00,76.8,72.4,29.91,ESE,119,0.0,1.2,86,0.00,,,0.00,WUHU216DAVISVP2,2013-09-08 05:48:00,
2013-09-08 01:00:00,76.6,72.4,29.91,ESE,120,0.0,1.0,87,0.00,,,0.00,WUHU216DAVISVP2,2013-09-08 06:00:00,
2013-09-08 01:18:00,76.6,72.9,29.90,East,95,0.0,0.0,88,0.00,,,0.00,WUHU216DAVISVP2,2013-09-08 06:18:00,
2013-09-08 01:30:00,76.5,73.0,29.90,North,7,0.0,0.0,89,0.00,,,0.00,WUHU216DAVISVP2,2013-09-08 06:30:00,
2013-09-08 01:48:00,76.3,72.9,29.90,East,97,0.0,0.0,89,0.00,,,0.00,WUHU216DAVISVP2,2013-09-08 06:48:00,
2013-09-08 02:00:00,76.1,73.0,29.90,North,7,0.0,0.0,90,0.00,,,0.00,WUHU216DAVISVP2,2013-09-08 07:00:00,
2013-09-08 02:18:00,75.8,72.7,29.90,East,97,0.0,0.0,90,0.00,,,0.00,WUHU216DAVISVP2,2013-09-08 07:18:00,
2013-09-08 02:30:00,75.5,72.4,29.90,North,7,0.0,0.0,90,0.00,,,0.00,WUHU216DAVISVP2,2013-09-08 07:30:00,
2013-09-08 02:48:00,75.1,72.4,29.90,East,97,0.0,0.0,91,0.00,,,0.00,WUHU216DAVISVP2,2013-09-08 07:48:00,
2013-09-08 03:00:00,74.9,72.1,29.90,North,7,0.0,0.0,91,0.00,,,0.00,WUHU216DAVISVP2,2013-09-08 08:00:00,
2013-09-08 03:18:00,74.6,72.2,29.90,East,97,0.0,0.0,92,0.00,,,0.00,WUHU216DAVISVP2,2013-09-08 08:18:00,
2013-09-08 03:30:00,74.4,71.9,29.90,North,7,0.0,0.0,92,0.00,,,0.00,WUHU216DAVISVP2,2013-09-08 08:30:00,
2013-09-08 03:48:00,74.3,72.2,29.90,East,97,0.0,0.0,93,0.00,,,0.00,WUHU216DAVISVP2,2013-09-08 08:48:00,
2013-09-08 04:00:00,74.2,72.0,29.89,North,7,0.0,0.0,93,0.00,,,0.00,WUHU216DAVISVP2,2013-09-08 09:00:00,
2013-09-08 04:18:00,74.0,71.9,29.88,East,97,0.0,0.0,93,0.00,,,0.00,WUHU216DAVISVP2,2013-09-08 09:18:00,
2013-09-08 04:30:00,73.9,71.7,29.88,North,7,0.0,0.0,93,0.00,,,0.00,WUHU216DAVISVP2,2013-09-08 09:30:00,
2013-09-08 04:48:00,73.8,72.0,29.86,North,7,0.0,0.0,94,0.00,,,0.00,WUHU216DAVISVP2,2013-09-08 09:48:00,
2013-09-08 05:00:00,73.6,71.8,29.88,North,7,0.0,0.0,94,0.00,,,0.00,WUHU216DAVISVP2,2013-09-08 10:00:00,
2013-09-08 05:18:00,73.3,71.5,29.88,North,7,0.0,0.0,94,0.00,,,0.00,WUHU216DAVISVP2,2013-09-08 10:18:00,
2013-09-08 05:30:00,73.1,71.3,29.89,North,7,0.0,0.0,94,0.00,,,0.00,WUHU216DAVISVP2,2013-09-08 10:30:00,
2013-09-08 05:48:00,73.0,71.2,29.88,North,7,0.0,0.0,94,0.00,,,0.00,WUHU216DAVISVP2,2013-09-08 10:48:00,
2013-09-08 06:00:00,73.2,71.7,29.89,North,7,0.0,0.0,95,0.00,,,0.00,WUHU216DAVISVP2,2013-09-08 11:00:00,
2013-09-08 06:18:00,73.4,71.9,29.89,NNE,16,2.4,3.6,95,0.00,,,0.00,WUHU216DAVISVP2,2013-09-08 11:18:00,
2013-09-08 06:30:00,73.4,71.9,29.90,NNE,30,1.4,4.0,95,0.00,,,0.00,WUHU216DAVISVP2,2013-09-08 11:30:00,
2013-09-08 06:48:00,73.5,72.0,29.89,NNE,12,0.0,4.0,95,0.00,,,0.00,WUHU216DAVISVP2,2013-09-08 11:48:00,
2013-09-08 07:00:00,73.4,71.9,29.90,North,7,1.4,4.0,95,0.00,,,0.00,WUHU216DAVISVP2,2013-09-08 12:00:00,
2013-09-08 07:18:00,73.7,72.2,29.91,NNE,23,0.0,5.0,95,0.00,,,0.00,WUHU216DAVISVP2,2013-09-08 12:18:00,
2013-09-08 07:30:00,74.1,72.6,29.91,NNE,30,1.4,5.0,95,0.00,,,0.00,WUHU216DAVISVP2,2013-09-08 12:30:00,
2013-09-08 07:48:00,74.5,73.0,29.91,NE,35,3.6,6.0,95,0.00,,,0.00,WUHU216DAVISVP2,2013-09-08 12:48:00,
2013-09-08 08:00:00,74.6,72.8,29.92,NE,52,1.4,7.0,94,0.00,,,0.00,WUHU216DAVISVP2,2013-09-08 13:00:00,
2013-09-08 08:18:00,75.0,73.2,29.92,ENE,68,0.0,7.0,94,0.00,,,0.00,WUHU216DAVISVP2,2013-09-08 13:18:00,
2013-09-08 08:30:00,75.5,73.3,29.92,NE,52,1.4,4.0,93,0.00,,,0.00,WUHU216DAVISVP2,2013-09-08 13:30:00,
2013-09-08 08:48:00,76.6,73.9,29.92,East,82,0.0,4.0,91,0.00,,,0.00,WUHU216DAVISVP2,2013-09-08 13:48:00,
2013-09-08 09:00:00,77.5,74.0,29.92,ENE,75,1.4,4.0,89,0.00,,,0.00,WUHU216DAVISVP2,2013-09-08 14:00:00,
2013-09-08 09:18:00,78.4,74.3,29.92,NNE,31,1.2,6.0,87,0.00,,,0.00,WUHU216DAVISVP2,2013-09-08 14:18:00,
2013-09-08 09:30:00,79.4,74.5,29.92,NE,52,1.4,6.0,85,0.00,,,0.00,WUHU216DAVISVP2,2013-09-08 14:30:00,
2013-09-08 09:48:00,80.3,74.5,29.92,East,84,0.0,4.8,82,0.00,,,0.00,WUHU216DAVISVP2,2013-09-08 14:48:00,
2013-09-08 10:00:00,80.6,74.2,29.92,ENE,75,1.4,5.0,81,0.00,,,0.00,WUHU216DAVISVP2,2013-09-08 15:00:00,
2013-09-08 10:18:00,82.0,74.3,29.93,ENE,64,1.2,4.0,77,0.00,,,0.00,WUHU216DAVISVP2,2013-09-08 15:18:00,
2013-09-08 10:30:00,82.9,74.2,29.92,NE,52,1.4,7.0,75,0.00,,,0.00,WUHU216DAVISVP2,2013-09-08 15:30:00,
2013-09-08 10:48:00,82.1,73.7,29.92,West,279,0.0,6.0,75,0.00,,,0.00,WUHU216DAVISVP2,2013-09-08 15:48:00,
2013-09-08 11:00:00,85.2,73.4,29.92,East,97,1.4,6.0,68,0.00,,,0.00,WUHU216DAVISVP2,2013-09-08 16:00:00,
2013-09-08 11:18:00,85.2,73.4,29.92,NE,54,4.8,6.0,67,0.00,,,0.00,WUHU216DAVISVP2,2013-09-08 16:18:00,
2013-09-08 11:30:00,87.4,73.3,29.91,NNE,30,2.7,7.0,63,0.00,,,0.00,WUHU216DAVISVP2,2013-09-08 16:30:00,
2013-09-08 11:48:00,88.0,72.3,29.91,East,88,2.4,7.0,59,0.00,,,0.00,WUHU216DAVISVP2,2013-09-08 16:48:00,
2013-09-08 12:00:00,86.9,72.8,29.91,ENE,75,1.4,7.0,63,0.00,,,0.00,WUHU216DAVISVP2,2013-09-08 17:00:00,
2013-09-08 12:18:00,88.4,73.2,29.90,East,83,0.0,8.4,60,0.00,,,0.00,WUHU216DAVISVP2,2013-09-08 17:18:00,
2013-09-08 12:30:00,89.4,71.1,29.89,NE,52,2.7,8.0,55,0.00,,,0.00,WUHU216DAVISVP2,2013-09-08 17:30:00,
2013-09-08 12:48:00,87.6,70.9,29.90,ESE,106,2.4,7.2,57,0.00,,,0.00,WUHU216DAVISVP2,2013-09-08 17:48:00,
2013-09-08 13:00:00,82.0,70.0,29.90,East,97,5.4,16.0,67,0.00,,,0.00,WUHU216DAVISVP2,2013-09-08 18:00:00,
2013-09-08 13:18:00,78.2,70.7,29.89,SE,139,3.6,14.0,77,0.00,,,0.00,WUHU216DAVISVP2,2013-09-08 18:18:00,
2013-09-08 13:30:00,77.6,71.3,29.89,SE,142,6.8,10.0,81,0.00,,,0.00,WUHU216DAVISVP2,2013-09-08 18:30:00,
2013-09-08 13:48:00,79.3,72.5,29.89,ESE,110,2.4,9.0,79,0.00,,,0.00,WUHU216DAVISVP2,2013-09-08 18:48:00,
2013-09-08 14:00:00,82.8,73.3,29.89,SE,142,4.1,7.0,73,0.00,,,0.00,WUHU216DAVISVP2,2013-09-08 19:00:00,
2013-09-08 14:18:00,84.2,74.1,29.89,ESE,110,2.4,15.6,71,0.00,,,0.00,WUHU216DAVISVP2,2013-09-08 19:18:00,
2013-09-08 14:30:00,83.9,73.1,29.87,East,97,6.8,13.0,70,0.00,,,0.00,WUHU216DAVISVP2,2013-09-08 19:30:00,
2013-09-08 14:48:00,85.8,73.5,29.88,East,79,3.6,12.0,66,0.00,,,0.00,WUHU216DAVISVP2,2013-09-08 19:48:00,
2013-09-08 15:00:00,87.2,70.6,29.88,East,97,5.4,10.0,58,0.00,,,0.00,WUHU216DAVISVP2,2013-09-08 20:00:00,
2013-09-08 15:18:00,88.0,71.8,29.86,SE,130,8.4,12.0,58,0.00,,,0.00,WUHU216DAVISVP2,2013-09-08 20:18:00,
2013-09-08 15:30:00,88.1,70.9,29.87,East,97,6.8,12.0,57,0.00,,,0.00,WUHU216DAVISVP2,2013-09-08 20:30:00,
2013-09-08 15:48:00,86.3,70.2,29.85,East,91,7.2,12.0,58,0.00,,,0.00,WUHU216DAVISVP2,2013-09-08 20:48:00,
2013-09-08 16:00:00,87.6,70.5,29.85,East,97,5.4,10.0,57,0.00,,,0.00,WUHU216DAVISVP2,2013-09-08 21:00:00,
2013-09-08 16:18:00,87.5,71.3,29.85,SE,132,8.4,12.0,58,0.00,,,0.00,WUHU216DAVISVP2,2013-09-08 21:18:00,
2013-09-08 16:30:00,85.6,71.6,29.84,SE,142,6.8,10.0,63,0.00,,,0.00,WUHU216DAVISVP2,2013-09-08 21:30:00,
2013-09-08 16:48:00,84.9,72.7,29.83,SSE,162,4.8,9.6,66,0.00,,,0.00,WUHU216DAVISVP2,2013-09-08 21:48:00,
2013-09-08 17:00:00,84.1,71.5,29.84,SE,142,6.8,8.0,66,0.00,,,0.00,WUHU216DAVISVP2,2013-09-08 22:00:00,
2013-09-08 17:18:00,83.4,71.2,29.84,SE,146,1.2,8.0,66,0.00,,,0.00,WUHU216DAVISVP2,2013-09-08 22:18:00,
2013-09-08 17:30:00,82.9,70.4,29.84,SE,142,2.7,8.0,66,0.00,,,0.00,WUHU216DAVISVP2,2013-09-08 22:30:00,
2013-09-08 17:48:00,82.6,69.6,29.84,ESE,120,2.4,7.2,64,0.00,,,0.00,WUHU216DAVISVP2,2013-09-08 22:48:00,
2013-09-08 18:00:00,82.8,70.3,29.84,SE,142,2.7,6.0,66,0.00,,,0.00,WUHU216DAVISVP2,2013-09-08 23:00:00,
2013-09-08 18:18:00,83.6,71.0,29.85,ESE,116,2.4,6.0,65,0.00,,,0.00,WUHU216DAVISVP2,2013-09-08 23:18:00,
2013-09-08 18:30:00,83.2,69.8,29.85,East,97,1.4,5.0,64,0.00,,,0.00,WUHU216DAVISVP2,2013-09-08 23:30:00,
2013-09-08 18:48:00,82.5,69.5,29.85,East,93,0.0,6.0,64,0.00,,,0.00,WUHU216DAVISVP2,2013-09-08 23:48:00,
2013-09-08 19:00:00,82.6,69.2,29.86,East,97,2.7,5.0,64,0.00,,,0.00,WUHU216DAVISVP2,2013-09-09 00:00:00,
2013-09-08 19:25:00,81.9,70.2,29.86,SE,135,1.2,5.0,67,0.00,,,0.00,WUHU216DAVISVP2,2013-09-09 00:25:00,
2013-09-08 19:30:00,81.4,69.8,29.87,East,97,1.4,5.0,68,0.00,,,0.00,WUHU216DAVISVP2,2013-09-09 00:30:00,
2013-09-08 19:55:00,80.7,70.4,29.86,SE,126,0.0,2.0,70,0.00,,,0.00,WUHU216DAVISVP2,2013-09-09 00:55:00,
2013-09-08 20:00:00,80.4,70.1,29.87,ESE,120,0.0,2.0,71,0.00,,,0.00,WUHU216DAVISVP2,2013-09-09 01:00:00,
2013-09-08 20:25:00,79.5,70.8,29.86,SE,126,0.0,0.0,74,0.00,,,0.00,WUHU216DAVISVP2,2013-09-09 01:25:00,
2013-09-08 20:30:00,79.2,70.2,29.87,North,7,0.0,0.0,74,0.00,,,0.00,WUHU216DAVISVP2,2013-09-09 01:30:00,
2013-09-08 20:55:00,78.7,70.8,29.88,SE,126,0.0,0.0,76,0.00,,,0.00,WUHU216DAVISVP2,2013-09-09 01:55:00,
2013-09-08 21:00:00,78.5,70.3,29.88,North,7,0.0,0.0,76,0.00,,,0.00,WUHU216DAVISVP2,2013-09-09 02:00:00,
2013-09-08 21:25:00,77.9,70.7,29.88,SE,126,0.0,1.0,78,0.00,,,0.00,WUHU216DAVISVP2,2013-09-09 02:25:00,
2013-09-08 21:30:00,77.7,71.0,29.88,ESE,120,0.0,2.0,80,0.00,,,0.00,WUHU216DAVISVP2,2013-09-09 02:30:00,
2013-09-08 21:55:00,77.4,71.0,29.89,ESE,103,2.6,3.0,80,0.00,,,0.00,WUHU216DAVISVP2,2013-09-09 02:55:00,
2013-09-08 22:00:00,77.4,70.7,29.89,ESE,120,1.4,4.0,80,0.00,,,0.00,WUHU216DAVISVP2,2013-09-09 03:00:00,
2013-09-08 22:25:00,77.2,71.1,29.89,SE,126,0.0,5.0,81,0.00,,,0.00,WUHU216DAVISVP2,2013-09-09 03:25:00,
2013-09-08 22:30:00,77.0,71.1,29.89,ESE,120,2.7,5.0,82,0.00,,,0.00,WUHU216DAVISVP2,2013-09-09 03:30:00,
2013-09-08 22:55:00,76.6,71.2,29.89,SE,145,0.0,6.5,83,0.00,,,0.00,WUHU216DAVISVP2,2013-09-09 03:55:00,
2013-09-08 23:00:00,76.4,70.9,29.89,SE,142,1.4,5.0,83,0.00,,,0.00,WUHU216DAVISVP2,2013-09-09 04:00:00,
2013-09-08 23:25:00,76.0,71.3,29.89,SSE,154,0.0,2.0,85,0.00,,,0.00,WUHU216DAVISVP2,2013-09-09 04:25:00,
2013-09-08 23:30:00,75.8,71.0,29.89,SSE,165,0.0,2.0,85,0.00,,,0.00,WUHU216DAVISVP2,2013-09-09 04:30:00,
2013-09-08 23:55:00,75.3,70.9,29.88,SSE,154,0.0,0.0,86,0.00,,,0.00,WUHU216DAVISVP2,2013-09-09 04:55:00,